map of VHC home
VHC - Airport
Location
City:  Saurimo, Lunda Sul, Angola
ICAO:FNSA
IATA:VHC

Details
Type:Airport (Aerodrome, Airfield)
Use:Public/Civil
Latitude:941'21"S (-9.689066)
Longitude:2025'55"E (20.431875)
Datum:WGS 1984
Elevation:3584 ft (1092 m)
Variation:1.71W (WMM2015v2 magnetic declination)
0.12 annual change
Runways:1
Longest:11155 × 148 ft (3400 × 45 m), paved

Time
Time Zone:UTC+1
Local Time:

Weather
METAR:FNSA 041200Z 00000KT 9999 SCT030 28/20 Q1018

Related Locations
Nearby:
Farthest:PLPA: 12123 mi / 19510 km
Palmyra Island Atoll [Palmyra Airport (Cooper)], UM

Find:

   beyond  
but within

Other Information
Maps:
NOTAMs:
Links:
Sources:

  
  • flag of Angola
  

Sectional Chart

Flight Planning
at skyvector.com

Satellite Image

Google Maps Satellite view

 

Copyright © 2004-2019 Karl L. Swartz. All rights reserved.
The Great Circle Mapper name and logo are trademarks of the Great Circle Mapper.
All other trademarks mentioned herein belong to their respective owners.
Please see credits for attibutions and further copyright information.

  Follow gcmap on Facebook Follow gcmap on Twitter GCmap on LinkedIn

hCard Microformat

Geo Microformat